Hourly Weather Lugowice

Today, 13 May, Thursday

Time Temperature Precipitation Wind Pressure Humidity
00:00 +10°C° 0 mm 5 mps 742 mmHg 82%
01:00 +10°C° 0 mm 4 mps 741 mmHg 84%
02:00 +10°C° 0 mm 4 mps 741 mmHg 86%
03:00 +8°C° 0 mm 4 mps 741 mmHg 88%
04:00 +7°C° 0 mm 4 mps 740 mmHg 90%
05:00 +8°C° 0 mm 4 mps 740 mmHg 85%
06:00 +9°C° 0 mm 5 mps 740 mmHg 79%
07:00 +12°C° 0 mm 5 mps 739 mmHg 74%
08:00 +13°C° 0 mm 5 mps 739 mmHg 69%
09:00 +15°C° 0 mm 5 mps 739 mmHg 65%
10:00 +16°C° 0 mm 5 mps 738 mmHg 61%
11:00 +17°C° 0 mm 5 mps 738 mmHg 60%
12:00 +18°C° 0 mm 4 mps 738 mmHg 59%
13:00 +19°C° 0 mm 4 mps 737 mmHg 58%
14:00 +18°C° 0 mm 3 mps 737 mmHg 64%
15:00 +18°C° 0 mm 3 mps 737 mmHg 69%
16:00 +17°C° 0 mm 2 mps 737 mmHg 75%
17:00 +16°C° 0 mm 2 mps 737 mmHg 78%
18:00 +16°C° 0 mm 2 mps 736 mmHg 81%
19:00 +15°C° 0 mm 1 mps 736 mmHg 84%
20:00 +15°C° 0 mm 1 mps 736 mmHg 85%
21:00 +14°C° 0 mm 1 mps 736 mmHg 87%
22:00 +14°C° 0 mm 1 mps 737 mmHg 88%
23:00 +14°C° 0 mm 1 mps 736 mmHg 89%

Tomorrow, 14 May, Friday

Time Temperature Precipitation Wind Pressure Humidity
00:00 +14°C° 0 mm 1 mps 736 mmHg 89%
01:00 +13°C° 0 mm 1 mps 736 mmHg 90%
02:00 +13°C° 0.1 mm 1 mps 737 mmHg 90%
03:00 +13°C° 0.1 mm 2 mps 737 mmHg 91%
04:00 +12°C° 0.1 mm 2 mps 737 mmHg 91%
05:00 +12°C° 0 mm 3 mps 737 mmHg 89%
06:00 +12°C° 0 mm 3 mps 738 mmHg 87%
07:00 +12°C° 0 mm 4 mps 738 mmHg 85%
08:00 +13°C° 0 mm 4 mps 738 mmHg 82%
09:00 +14°C° 0 mm 4 mps 739 mmHg 79%
10:00 +15°C° 0 mm 5 mps 739 mmHg 76%
11:00 +15°C° 0.1 mm 5 mps 739 mmHg 76%
12:00 +14°C° 0.1 mm 5 mps 740 mmHg 76%
13:00 +14°C° 0.1 mm 6 mps 740 mmHg 76%
14:00 +14°C° 0 mm 6 mps 740 mmHg 77%
15:00 +14°C° 0 mm 5 mps 741 mmHg 78%
16:00 +13°C° 0 mm 5 mps 741 mmHg 78%
17:00 +13°C° 0 mm 5 mps 741 mmHg 80%
18:00 +12°C° 0 mm 5 mps 741 mmHg 82%
19:00 +11°C° 0 mm 4 mps 742 mmHg 84%
20:00 +11°C° 0 mm 4 mps 742 mmHg 84%
21:00 +10°C° 0 mm 4 mps 742 mmHg 85%
22:00 +10°C° 0 mm 4 mps 742 mmHg 86%
23:00 +10°C° 0 mm 4 mps 743 mmHg 87%

Day after tomorrow, 15 May, Saturday

Time Temperature Precipitation Wind Pressure Humidity
00:00 +10°C° 0 mm 4 mps 743 mmHg 88%
01:00 +10°C° 0 mm 4 mps 743 mmHg 88%
02:00 +10°C° 0 mm 3 mps 743 mmHg 89%
03:00 +10°C° 0 mm 3 mps 743 mmHg 89%
04:00 +10°C° 0 mm 3 mps 743 mmHg 90%
05:00 +10°C° 0 mm 3 mps 744 mmHg 88%
06:00 +10°C° 0 mm 3 mps 744 mmHg 87%
07:00 +11°C° 0 mm 3 mps 744 mmHg 85%
08:00 +12°C° 0 mm 3 mps 744 mmHg 77%
09:00 +14°C° 0 mm 3 mps 744 mmHg 69%
10:00 +15°C° 0 mm 4 mps 744 mmHg 61%
11:00 +17°C° 0 mm 3 mps 744 mmHg 58%
12:00 +18°C° 0 mm 3 mps 744 mmHg 54%
13:00 +18°C° 0 mm 3 mps 744 mmHg 51%
14:00 +19°C° 0 mm 2 mps 744 mmHg 51%
15:00 +20°C° 0 mm 1 mps 744 mmHg 51%
16:00 +20°C° 0 mm 1 mps 744 mmHg 51%
17:00 +18°C° 0 mm 1 mps 743 mmHg 56%
18:00 +16°C° 0 mm 2 mps 743 mmHg 62%
19:00 +15°C° 0 mm 2 mps 743 mmHg 68%
20:00 +14°C° 0 mm 2 mps 743 mmHg 70%
21:00 +12°C° 0 mm 3 mps 743 mmHg 72%
22:00 +11°C° 0 mm 3 mps 743 mmHg 74%
23:00 +11°C° 0 mm 3 mps 743 mmHg 75%

16 May, Sunday

Time Temperature Precipitation Wind Pressure Humidity
00:00 +11°C° 0 mm 3 mps 743 mmHg 77%
01:00 +11°C° 0 mm 3 mps 743 mmHg 78%
02:00 +11°C° 0.2 mm 3 mps 743 mmHg 81%
03:00 +12°C° 0.2 mm 2 mps 743 mmHg 83%
04:00 +10°C° 0.2 mm 2 mps 742 mmHg 86%
05:00 +11°C° 0.2 mm 3 mps 742 mmHg 85%
06:00 +12°C° 0.2 mm 3 mps 742 mmHg 84%
07:00 +13°C° 0.2 mm 4 mps 742 mmHg 83%
08:00 +15°C° 0 mm 4 mps 742 mmHg 77%
09:00 +17°C° 0 mm 4 mps 742 mmHg 71%
10:00 +19°C° 0 mm 4 mps 742 mmHg 65%
11:00 +19°C° 0.5 mm 3 mps 741 mmHg 64%
12:00 +20°C° 0.5 mm 3 mps 741 mmHg 63%
13:00 +20°C° 0.5 mm 3 mps 741 mmHg 62%
14:00 +20°C° 0.7 mm 3 mps 740 mmHg 66%
15:00 +19°C° 0.7 mm 4 mps 740 mmHg 69%
16:00 +18°C° 0.7 mm 4 mps 740 mmHg 73%
17:00 +17°C° 0.8 mm 4 mps 740 mmHg 79%
18:00 +14°C° 0.8 mm 3 mps 740 mmHg 85%
19:00 +13°C° 0.8 mm 3 mps 740 mmHg 91%
20:00 +12°C° 0.2 mm 3 mps 740 mmHg 92%
21:00 +12°C° 0.2 mm 3 mps 740 mmHg 93%
22:00 +13°C° 0.2 mm 2 mps 741 mmHg 94%
23:00 +12°C° 0.1 mm 2 mps 741 mmHg 95%

17 May, Monday

Time Temperature Precipitation Wind Pressure Humidity
00:00 +11°C° 0.1 mm 3 mps 741 mmHg 95%
01:00 +11°C° 0.1 mm 3 mps 741 mmHg 95%
02:00 +12°C° 0.3 mm 2 mps 741 mmHg 95%
03:00 +12°C° 0.3 mm 2 mps 741 mmHg 95%
04:00 +10°C° 0.3 mm 2 mps 741 mmHg 96%
05:00 +12°C° 0.1 mm 2 mps 741 mmHg 93%
06:00 +12°C° 0.1 mm 2 mps 741 mmHg 90%
07:00 +13°C° 0.1 mm 2 mps 741 mmHg 87%
08:00 +13°C° 0.1 mm 3 mps 741 mmHg 80%
09:00 +16°C° 0.1 mm 3 mps 741 mmHg 72%
10:00 +17°C° 0.1 mm 3 mps 741 mmHg 65%
11:00 +18°C° 0.1 mm 3 mps 741 mmHg 60%
12:00 +19°C° 0.1 mm 3 mps 741 mmHg 56%
13:00 +20°C° 0.1 mm 3 mps 741 mmHg 51%
14:00 +19°C° 0 mm 3 mps 741 mmHg 54%
15:00 +19°C° 0 mm 3 mps 741 mmHg 57%
16:00 +18°C° 0 mm 2 mps 740 mmHg 60%
17:00 +17°C° 0 mm 2 mps 740 mmHg 64%
18:00 +16°C° 0 mm 2 mps 740 mmHg 68%
19:00 +15°C° 0 mm 1 mps 740 mmHg 72%
20:00 +14°C° 0 mm 1 mps 741 mmHg 74%
21:00 +13°C° 0 mm 1 mps 741 mmHg 77%
22:00 +12°C° 0 mm 1 mps 741 mmHg 80%
23:00 +12°C° 0 mm 1 mps 741 mmHg 82%

18 May, Tuesday

Time Temperature Precipitation Wind Pressure Humidity
00:00 +12°C° 0 mm 1 mps 741 mmHg 84%
01:00 +12°C° 0 mm 1 mps 741 mmHg 85%
02:00 +12°C° 0 mm 1 mps 741 mmHg 85%
03:00 +12°C° 0 mm 2 mps 740 mmHg 85%
04:00 +12°C° 0 mm 2 mps 740 mmHg 85%
05:00 +12°C° 0.1 mm 2 mps 740 mmHg 86%
06:00 +13°C° 0.1 mm 2 mps 740 mmHg 86%
07:00 +13°C° 0.1 mm 2 mps 740 mmHg 87%
08:00 +12°C° 1.1 mm 3 mps 740 mmHg 89%
09:00 +12°C° 1.1 mm 3 mps 740 mmHg 90%
10:00 +12°C° 1.1 mm 3 mps 740 mmHg 92%
11:00 +12°C° 1.8 mm 4 mps 740 mmHg 93%
12:00 +12°C° 1.8 mm 4 mps 739 mmHg 93%
13:00 +12°C° 1.8 mm 4 mps 739 mmHg 94%
14:00 +12°C° 3.8 mm 5 mps 739 mmHg 95%
15:00 +11°C° 3.8 mm 6 mps 738 mmHg 95%
16:00 +11°C° 3.8 mm 7 mps 738 mmHg 96%
17:00 +10°C° 5.7 mm 7 mps 738 mmHg 96%
18:00 +10°C° 5.7 mm 8 mps 737 mmHg 96%
19:00 +10°C° 5.7 mm 9 mps 737 mmHg 96%
20:00 +8°C° 5.1 mm 10 mps 737 mmHg 96%
21:00 +8°C° 5.1 mm 10 mps 738 mmHg 96%
22:00 +8°C° 5.1 mm 11 mps 738 mmHg 96%
23:00 +8°C° 2.9 mm 11 mps 738 mmHg 96%
Show more

We Need Your Consent

Meteoprog and our Service Providers may store and access personal data such as cookies, device identifiers or other similar technologies on your device and process such data to personalise content and ads, as well as provide social media features and to analyse the traffic.

  • Store and/or access information on your device

    Cookies, device identifiers or other information can be stored or accessed on your device for the purposes indicated above.

  • Personalised ads and content, ad and content measurement, audience insights, and products development

    Ads and content can be personalised based on a profile. More data can be added to better personalise ads and content. Ad and content performance can be measured. Insights about the audience who saw the ads and content can be derived. Such data can be used to develop or improve user’s experience, systems and software.

By clicking ‘I Agree’ you will allow the use of indicated cookies, device identifiers, web beacons or other similar technologies. Your settings can be changed in the browser on your device.

For certain purposes, legitimate interests may be relied on, rather than consent. You can read more about this in our Privacy and Cookie Policy.